Weather in Aleksandrovka

Russia / Tyumen Oblast     56°36′28″N   69°43′49″E
temp.,
°C
wind,
m/s
gust,
m/s
humid.,
%
clouds,
%
prec.,
mm/h
press.,
hPa
HPBL,
m
29 january, sat
sat2923:00−22sw2210097 0.0 10279
02:00−22ssw1110099 0.0 10279
05:00−21s11100100 0.0 10279
08:00−16se2298100 0.0 102636
11:00−12se2496100 0.1 1026107
14:00−10se3591100 0.0 1025170
17:00−13ese3794100 0.0 102588
20:00−14se3891100 0.0 1024125
30 january, sun
sun3023:00−14ese3990100 0.0 1022152
02:00−15e3690100 0.0 1021102
05:00−16ese3790100 0.0 1019105
08:00−17se4992100 0.0 1018134
11:00−15se3788100 0.0 1017178
14:00−12sse3589100 0.0 1016212
17:00−12sse3696100 0.0 1016157
20:00−12s3797100 0.0 1016164
31 january, mon
mon3123:00−9ssw3795100 0.3 1016367
02:00−12ssw3795100 0.0 1017198
05:00−14ssw3796100 0.0 1018144
08:00−16ssw369793 0.0 101996
11:00−14sw36935 0.0 1020147
14:00−12ssw35898 0.0 1020178
17:00−14s369670 0.0 102189
20:00−14ssw379887 0.1 1022106
1 february, tue
tue123:00−11ssw389697 0.1 1022134
02:00−11ssw379893 0.1 1023115
05:00−10ssw379696 0.1 1023135
08:00−9sw379773 0.1 1024132
11:00−7sw389680 0.2 1026291
14:00−6sw369599 0.1 1027341
17:00−11ssw229878 0.1 102828
20:00−15sw3410089 0.0 102944
2 february, wed
wed223:00−16sw3610091 0.0 102963
02:00−15ssw35100100 0.0 103074
05:00−9s379799 0.1 1029241
08:00−6s5786100 0.1 1029428
11:00−5ssw5786100 0.1 1029661
14:00−5ssw478999 0.1 1028639
17:00−8s379664 0.1 1029121
20:00−11s499782 0.0 1030146